Time,TemperatureF,DewpointF,PressureIn,WindDirection,WindDirectionDegrees,WindSpeedMPH,WindSpeedGustMPH,Humidity,HourlyPrecipIn,Conditions,Clouds,dailyrainin,SoftwareType,DateUTC
2013-04-06 00:02:00,45.0,33.0,29.80,SSW,195,6.0,12.0,62,0.00,,,0.00,weatherlink.com 1.10,2013-04-06 05:02:00,
2013-04-06 00:17:00,45.0,33.0,29.80,South,171,5.0,13.0,62,0.00,,,0.00,weatherlink.com 1.10,2013-04-06 05:17:00,
2013-04-06 00:32:00,44.6,33.0,29.79,SSE,153,5.0,14.0,63,0.00,,,0.00,weatherlink.com 1.10,2013-04-06 05:32:00,
2013-04-06 00:47:00,44.4,33.0,29.79,SE,131,6.0,11.0,65,0.00,,,0.00,weatherlink.com 1.10,2013-04-06 05:47:00,
2013-04-06 01:02:00,44.2,33.0,29.78,SE,131,6.0,11.0,66,0.00,,,0.00,weatherlink.com 1.10,2013-04-06 06:02:00,
2013-04-06 01:17:00,44.0,34.0,29.77,SE,142,5.0,12.0,67,0.00,,,0.00,weatherlink.com 1.10,2013-04-06 06:17:00,
2013-04-06 01:32:00,43.8,34.0,29.76,SSE,162,6.0,15.0,68,0.00,,,0.00,weatherlink.com 1.10,2013-04-06 06:32:00,
2013-04-06 01:47:00,43.7,34.0,29.76,South,169,10.0,13.0,69,0.00,,,0.00,weatherlink.com 1.10,2013-04-06 06:47:00,
2013-04-06 02:02:00,43.7,34.0,29.75,SSE,150,5.0,11.0,70,0.00,,,0.00,weatherlink.com 1.10,2013-04-06 07:02:00,
2013-04-06 02:17:00,43.7,35.0,29.75,South,182,5.0,10.0,71,0.00,,,0.00,weatherlink.com 1.10,2013-04-06 07:17:00,
2013-04-06 02:32:00,43.7,35.0,29.73,SE,135,6.0,14.0,71,0.00,,,0.00,weatherlink.com 1.10,2013-04-06 07:32:00,
2013-04-06 02:47:00,43.9,35.0,29.73,ESE,116,8.0,11.0,71,0.00,,,0.00,weatherlink.com 1.10,2013-04-06 07:47:00,
2013-04-06 03:02:00,43.9,35.0,29.72,ESE,115,7.0,12.0,72,0.00,,,0.00,weatherlink.com 1.10,2013-04-06 08:02:00,
2013-04-06 03:17:00,44.1,36.0,29.71,SSW,203,5.0,12.0,72,0.00,,,0.00,weatherlink.com 1.10,2013-04-06 08:17:00,
2013-04-06 03:32:00,44.3,35.0,29.70,SSE,168,6.0,12.0,71,0.00,,,0.00,weatherlink.com 1.10,2013-04-06 08:32:00,
2013-04-06 03:47:00,44.4,36.0,29.70,South,174,4.0,12.0,71,0.00,,,0.00,weatherlink.com 1.10,2013-04-06 08:47:00,
2013-04-06 04:02:00,44.2,36.0,29.69,SE,139,4.0,10.0,72,0.00,,,0.00,weatherlink.com 1.10,2013-04-06 09:02:00,
2013-04-06 04:17:00,44.1,36.0,29.69,East,96,3.0,10.0,73,0.00,,,0.00,weatherlink.com 1.10,2013-04-06 09:17:00,
2013-04-06 04:32:00,44.3,36.0,29.68,SSE,150,3.0,12.0,73,0.00,,,0.00,weatherlink.com 1.10,2013-04-06 09:32:00,
2013-04-06 05:02:00,44.7,37.0,29.67,South,185,2.0,11.0,73,0.00,,,0.00,weatherlink.com 1.10,2013-04-06 10:02:00,
2013-04-06 05:32:00,44.9,37.0,29.65,SSE,159,5.0,13.0,74,0.00,,,0.00,weatherlink.com 1.10,2013-04-06 10:32:00,
2013-04-06 05:47:00,45.0,38.0,29.64,SE,128,5.0,10.0,75,0.00,,,0.00,weatherlink.com 1.10,2013-04-06 10:47:00,
2013-04-06 06:02:00,45.6,38.0,29.64,South,178,3.0,9.0,74,0.00,,,0.00,weatherlink.com 1.10,2013-04-06 11:02:00,
2013-04-06 06:18:00,46.1,38.0,29.63,SSW,192,3.0,10.0,74,0.00,,,0.00,weatherlink.com 1.10,2013-04-06 11:18:00,
2013-04-06 06:33:00,45.9,38.0,29.64,SE,135,2.0,10.0,74,0.00,,,0.00,weatherlink.com 1.10,2013-04-06 11:33:00,
2013-04-06 06:48:00,45.2,38.0,29.63,SE,145,1.0,5.0,76,0.00,,,0.00,weatherlink.com 1.10,2013-04-06 11:48:00,
2013-04-06 07:03:00,45.3,39.0,29.62,South,174,3.0,7.0,77,0.00,,,0.00,weatherlink.com 1.10,2013-04-06 12:03:00,
2013-04-06 07:18:00,45.6,39.0,29.61,South,174,8.0,10.0,77,0.00,,,0.00,weatherlink.com 1.10,2013-04-06 12:18:00,
2013-04-06 07:33:00,45.9,39.0,29.60,SSE,160,6.0,10.0,78,0.00,,,0.00,weatherlink.com 1.10,2013-04-06 12:33:00,
2013-04-06 07:48:00,46.7,40.0,29.61,SSE,156,4.0,14.0,77,0.00,,,0.00,weatherlink.com 1.10,2013-04-06 12:48:00,
2013-04-06 08:03:00,47.4,40.0,29.60,SSE,167,8.0,9.0,76,0.00,,,0.00,weatherlink.com 1.10,2013-04-06 13:03:00,
2013-04-06 08:18:00,49.4,41.0,29.59,South,181,10.0,20.0,72,0.00,,,0.00,weatherlink.com 1.10,2013-04-06 13:18:00,
2013-04-06 08:33:00,49.9,41.0,29.58,South,174,9.0,19.0,71,0.00,,,0.00,weatherlink.com 1.10,2013-04-06 13:33:00,
2013-04-06 08:48:00,50.6,41.0,29.58,South,190,5.0,15.0,70,0.00,,,0.00,weatherlink.com 1.10,2013-04-06 13:48:00,
2013-04-06 09:03:00,51.6,42.0,29.56,SE,132,12.0,15.0,69,0.00,,,0.00,weatherlink.com 1.10,2013-04-06 14:03:00,
2013-04-06 09:18:00,52.4,42.0,29.55,South,190,7.0,13.0,68,0.00,,,0.00,weatherlink.com 1.10,2013-04-06 14:18:00,
2013-04-06 09:33:00,53.7,43.0,29.55,SSW,198,7.0,14.0,67,0.00,,,0.00,weatherlink.com 1.10,2013-04-06 14:33:00,
2013-04-06 09:48:00,55.7,44.0,29.54,South,185,12.0,20.0,64,0.00,,,0.00,weatherlink.com 1.10,2013-04-06 14:48:00,
2013-04-06 10:03:00,55.7,44.0,29.53,SSW,205,11.0,20.0,64,0.00,,,0.00,weatherlink.com 1.10,2013-04-06 15:03:00,
2013-04-06 10:19:00,56.0,44.0,29.53,SSE,168,20.0,23.0,64,0.00,,,0.00,weatherlink.com 1.10,2013-04-06 15:19:00,
2013-04-06 10:48:00,58.1,45.0,29.53,SSW,211,10.0,23.0,63,0.00,,,0.00,weatherlink.com 1.10,2013-04-06 15:48:00,
2013-04-06 12:04:00,57.9,46.0,29.53,SSW,203,10.0,19.0,65,0.00,,,0.00,weatherlink.com 1.10,2013-04-06 17:04:00,
2013-04-06 12:19:00,58.1,46.0,29.53,WSW,250,11.0,18.0,65,0.00,,,0.00,weatherlink.com 1.10,2013-04-06 17:19:00,
2013-04-06 12:34:00,57.7,46.0,29.53,WSW,257,15.0,19.0,66,0.00,,,0.00,weatherlink.com 1.10,2013-04-06 17:34:00,
2013-04-06 12:49:00,56.9,46.0,29.53,West,275,8.0,19.0,67,0.00,,,0.00,weatherlink.com 1.10,2013-04-06 17:49:00,
2013-04-06 13:19:00,52.1,42.0,29.54,WNW,282,8.0,15.0,68,0.00,,,0.00,weatherlink.com 1.10,2013-04-06 18:19:00,
2013-04-06 13:34:00,50.9,41.0,29.54,WNW,282,4.0,12.0,70,0.00,,,0.00,weatherlink.com 1.10,2013-04-06 18:34:00,
2013-04-06 13:49:00,50.5,41.0,29.55,WSW,256,6.0,12.0,71,0.00,,,0.00,weatherlink.com 1.10,2013-04-06 18:49:00,
2013-04-06 14:04:00,50.0,42.0,29.56,WSW,246,3.0,11.0,75,0.00,,,0.00,weatherlink.com 1.10,2013-04-06 19:04:00,
2013-04-06 14:34:00,48.0,44.0,29.52,NE,48,0.0,7.0,86,0.05,,,0.05,weatherlink.com 1.10,2013-04-06 19:34:00,
2013-04-06 14:49:00,47.8,45.0,29.56,SW,233,7.0,14.0,89,0.06,,,0.06,weatherlink.com 1.10,2013-04-06 19:49:00,
2013-04-06 15:04:00,47.9,44.0,29.56,West,280,10.0,15.0,87,0.06,,,0.06,weatherlink.com 1.10,2013-04-06 20:04:00,
2013-04-06 15:19:00,47.8,45.0,29.57,SW,223,7.0,14.0,88,0.03,,,0.06,weatherlink.com 1.10,2013-04-06 20:19:00,
2013-04-06 15:34:00,47.6,44.0,29.57,SW,234,7.0,14.0,87,0.01,,,0.06,weatherlink.com 1.10,2013-04-06 20:34:00,
2013-04-06 16:04:00,47.0,44.0,29.57,West,259,8.0,15.0,88,0.00,,,0.06,weatherlink.com 1.10,2013-04-06 21:04:00,
2013-04-06 16:19:00,47.0,44.0,29.58,SW,227,4.0,16.0,89,0.00,,,0.06,weatherlink.com 1.10,2013-04-06 21:19:00,
2013-04-06 16:34:00,47.7,45.0,29.59,West,278,3.0,13.0,90,0.00,,,0.06,weatherlink.com 1.10,2013-04-06 21:34:00,
2013-04-06 16:49:00,48.6,45.0,29.60,WNW,296,8.0,16.0,86,0.00,,,0.06,weatherlink.com 1.10,2013-04-06 21:49:00,
2013-04-06 17:34:00,49.7,44.0,29.62,West,277,6.0,16.0,80,0.00,,,0.06,weatherlink.com 1.10,2013-04-06 22:34:00,
2013-04-06 18:04:00,50.6,44.0,29.64,NNW,327,7.0,18.0,77,0.00,,,0.06,weatherlink.com 1.10,2013-04-06 23:04:00,
2013-04-06 18:34:00,50.4,43.0,29.65,NW,304,9.0,12.0,76,0.00,,,0.06,weatherlink.com 1.10,2013-04-06 23:34:00,
2013-04-06 18:49:00,49.9,43.0,29.66,NW,320,7.0,13.0,77,0.00,,,0.06,weatherlink.com 1.10,2013-04-06 23:49:00,
2013-04-06 19:04:00,49.6,43.0,29.66,NNW,338,7.0,16.0,77,0.00,,,0.06,weatherlink.com 1.10,2013-04-07 00:04:00,
2013-04-06 19:34:00,47.9,42.0,29.67,NNW,338,6.0,13.0,80,0.00,,,0.06,weatherlink.com 1.10,2013-04-07 00:34:00,
2013-04-06 19:49:00,47.2,41.0,29.68,NW,323,3.0,10.0,80,0.00,,,0.06,weatherlink.com 1.10,2013-04-07 00:49:00,
2013-04-06 20:04:00,46.3,41.0,29.68,NW,325,6.0,10.0,82,0.00,,,0.06,weatherlink.com 1.10,2013-04-07 01:04:00,
2013-04-06 20:19:00,45.4,41.0,29.70,North,349,7.0,7.0,83,0.00,,,0.06,weatherlink.com 1.10,2013-04-07 01:19:00,
2013-04-06 20:34:00,44.5,40.0,29.72,NW,309,8.0,8.0,84,0.00,,,0.06,weatherlink.com 1.10,2013-04-07 01:34:00,
2013-04-06 21:04:00,43.1,39.0,29.73,NNW,332,4.0,7.0,86,0.00,,,0.06,weatherlink.com 1.10,2013-04-07 02:04:00,
2013-04-06 21:19:00,42.5,39.0,29.73,North,350,9.0,9.0,87,0.00,,,0.06,weatherlink.com 1.10,2013-04-07 02:19:00,
2013-04-06 21:34:00,42.2,38.0,29.74,NNW,343,4.0,8.0,86,0.00,,,0.06,weatherlink.com 1.10,2013-04-07 02:34:00,
2013-04-06 21:49:00,41.9,38.0,29.75,NW,318,10.0,11.0,86,0.00,,,0.06,weatherlink.com 1.10,2013-04-07 02:49:00,
2013-04-06 22:04:00,41.3,37.0,29.75,NW,320,3.0,10.0,86,0.00,,,0.06,weatherlink.com 1.10,2013-04-07 03:04:00,
2013-04-06 22:19:00,40.6,37.0,29.76,NW,313,3.0,10.0,86,0.00,,,0.06,weatherlink.com 1.10,2013-04-07 03:19:00,
2013-04-06 22:34:00,40.0,37.0,29.76,NW,316,6.0,9.0,87,0.00,,,0.06,weatherlink.com 1.10,2013-04-07 03:34:00,
2013-04-06 22:49:00,39.3,36.0,29.77,NNW,332,2.0,6.0,88,0.00,,,0.06,weatherlink.com 1.10,2013-04-07 03:49:00,
2013-04-06 23:04:00,38.7,36.0,29.77,NNW,335,6.0,10.0,89,0.00,,,0.06,weatherlink.com 1.10,2013-04-07 04:04:00,
2013-04-06 23:19:00,38.3,35.0,29.77,NW,324,6.0,9.0,89,0.00,,,0.06,weatherlink.com 1.10,2013-04-07 04:19:00,
2013-04-06 23:34:00,37.5,35.0,29.78,NW,315,6.0,8.0,89,0.00,,,0.06,weatherlink.com 1.10,2013-04-07 04:34:00,
2013-04-06 23:49:00,36.9,34.0,29.78,North,355,5.0,14.0,90,0.00,,,0.06,weatherlink.com 1.10,2013-04-07 04:49:00,